Weather History for KACQ - December, 2012

Change the Weather History Date:

Saturday, December 8, 2012

  Actual Average Record
Temperature  
Mean Temperature 30 °F -  
Max Temperature 35 °F 26 °F - (-1)
Min Temperature 26 °F 10 °F - (-1)
Degree Days  
Heating Degree Days 34    
Moisture  
Dew Point 26 °F    
Average Humidity 80    
Maximum Humidity 93    
Minimum Humidity 75    
Precipitation  
Precipitation 0.00 in - - ()
Sea Level Pressure  
Sea Level Pressure 30.01 in    
Wind  
Wind Speed 7 mph (East)    
Max Wind Speed 16 mph    
Max Gust Speed 23 mph    
Visibility 7 miles    
Events      
Averages and records for this station are not official NWS values.
T = Trace of Precipitation, MM = Missing Value Source: NWS Daily Summary

Daily Weather History Graph

Daily Weather History Graph

Search for Another Location

Airport or City:

Trip Planner

Search our weather history database for the weather conditions in past years. The results will help you decide how hot, cold, wet, or windy it might be!

Date:

Astronomy

Dec. 08, 2012 Rise Set
Actual Time 7:36 AM CST 4:35 PM CST
Civil Twilight 7:03 AM CST 5:08 PM CST
Nautical Twilight 6:27 AM CST 5:45 PM CST
Astronomical Twilight 5:52 AM CST 6:20 PM CST
Moon 1:53 AM CST (12/8) 1:14 PM CST (12/8)
Length of Visible Light 10h 04m
Length of Day
8h 58m
Waning Crescent, 28% of the Moon is Illuminated
Dec 8
Waning Crescent
Dec 13
New
Dec 19
First Quarter
Dec 28
Full
Jan 4
Last Quarter

Hourly Weather History & Observations

Time (CST) Temp. Windchill Dew Point Humidity Pressure Visibility Wind Dir Wind Speed Gust Speed Precip Events Conditions
12:13 AM 28.4 °F 19.1 °F 23.0 °F 80% 30.01 in 10.0 mi NNE 10.4 mph - N/A   Overcast
12:34 AM 28.4 °F 20.4 °F 23.0 °F 80% 30.01 in 10.0 mi NNE 8.1 mph - N/A   Overcast
12:53 AM 28.4 °F 20.4 °F 23.0 °F 80% 30.01 in 10.0 mi NE 8.1 mph - N/A   Mostly Cloudy
1:13 AM 28.4 °F 19.7 °F 23.0 °F 80% 30.00 in 7.0 mi NNE 9.2 mph - N/A   Mostly Cloudy
1:34 AM 28.4 °F 21.2 °F 23.0 °F 80% 30.01 in 7.0 mi NE 6.9 mph - N/A   Overcast
2:13 AM 26.6 °F 19.1 °F 21.2 °F 80% 30.01 in 7.0 mi North 6.9 mph - N/A   Overcast
2:33 AM 26.6 °F 19.1 °F 21.2 °F 80% 30.02 in 5.0 mi North 6.9 mph - N/A   Haze
2:53 AM 26.6 °F 18.2 °F 23.0 °F 86% 30.03 in 3.0 mi North 8.1 mph - N/A   Overcast
3:13 AM 28.4 °F 21.2 °F 23.0 °F 80% 30.03 in 2.0 mi NNE 6.9 mph - N/A   Overcast
3:33 AM 28.4 °F 20.4 °F 23.0 °F 80% 30.03 in 2.0 mi NNE 8.1 mph - N/A   Overcast
3:54 AM 28.4 °F 22.2 °F 23.0 °F 80% 30.03 in 3.0 mi NE 5.8 mph - N/A   Overcast
4:13 AM 28.4 °F 22.2 °F 23.0 °F 80% 30.03 in 4.0 mi ENE 5.8 mph - N/A   Overcast
4:33 AM 28.4 °F 22.2 °F 23.0 °F 80% 30.03 in 4.0 mi East 5.8 mph - N/A   Overcast
4:54 AM 28.4 °F 23.3 °F 23.0 °F 80% 30.03 in 5.0 mi ESE 4.6 mph - N/A   Overcast
5:13 AM 28.4 °F 23.3 °F 23.0 °F 80% 30.04 in 5.0 mi East 4.6 mph - N/A   Overcast
5:33 AM 28.4 °F 24.6 °F 23.0 °F 80% 30.03 in 4.0 mi East 3.5 mph - N/A   Overcast
5:54 AM 28.4 °F 24.6 °F 23.0 °F 80% 30.03 in 4.0 mi ENE 3.5 mph - N/A   Overcast
6:13 AM 28.4 °F 22.2 °F 23.0 °F 80% 30.03 in 4.0 mi ENE 5.8 mph - N/A   Overcast
6:33 AM 28.4 °F 22.2 °F 23.0 °F 80% 30.04 in 5.0 mi ENE 5.8 mph - N/A   Overcast
6:53 AM 28.4 °F 22.2 °F 23.0 °F 80% 30.04 in 4.0 mi East 5.8 mph - N/A   Overcast
7:14 AM 28.4 °F 21.2 °F 23.0 °F 80% 30.04 in 4.0 mi NE 6.9 mph - N/A   Overcast
7:33 AM 28.4 °F 24.6 °F 23.0 °F 80% 30.04 in 3.0 mi East 3.5 mph - N/A   Overcast
7:53 AM 28.4 °F 22.2 °F 23.0 °F 80% 30.04 in 2.5 mi ESE 5.8 mph - N/A   Overcast
8:14 AM 28.4 °F 22.2 °F 23.0 °F 80% 30.04 in 3.0 mi ESE 5.8 mph - N/A   Overcast
8:33 AM 28.4 °F 20.4 °F 23.0 °F 80% 30.04 in 3.0 mi East 8.1 mph - N/A   Overcast
8:53 AM 28.4 °F 21.2 °F 24.8 °F 86% 30.04 in 4.0 mi ESE 6.9 mph - N/A   Overcast
9:14 AM 28.4 °F 23.3 °F 24.8 °F 86% 30.05 in 3.0 mi ESE 4.6 mph - N/A   Overcast
9:33 AM 28.4 °F 21.2 °F 24.8 °F 86% 30.05 in 3.0 mi East 6.9 mph - N/A   Overcast
9:54 AM 28.4 °F 22.2 °F 26.6 °F 93% 30.05 in 2.0 mi SE 5.8 mph - N/A   Overcast
10:13 AM 30.2 °F 24.3 °F 26.6 °F 86% 30.06 in 1.8 mi SSE 5.8 mph - N/A   Overcast
10:33 AM 30.2 °F 23.4 °F 26.6 °F 86% 30.06 in 2.5 mi ESE 6.9 mph - N/A   Overcast
10:54 AM 30.2 °F 24.3 °F 26.6 °F 86% 30.06 in 3.0 mi ESE 5.8 mph - N/A   Overcast
11:14 AM 30.2 °F 25.4 °F 26.6 °F 86% 30.05 in 3.0 mi ESE 4.6 mph - N/A   Overcast
11:33 AM 32.0 °F 27.5 °F 28.4 °F 87% 30.04 in 4.0 mi East 4.6 mph - N/A   Overcast
11:53 AM 32.0 °F 27.5 °F 28.4 °F 87% 30.03 in 7.0 mi ESE 4.6 mph - N/A   Scattered Clouds
12:14 PM 33.8 °F 30.8 °F 30.2 °F 87% 30.02 in 7.0 mi East 3.5 mph - N/A   Clear
12:34 PM 33.8 °F 30.8 °F 30.2 °F 87% 30.01 in 7.0 mi East 3.5 mph - N/A   Clear
12:53 PM 33.8 °F 29.6 °F 28.4 °F 81% 30.01 in 10.0 mi East 4.6 mph - N/A   Clear
1:14 PM 33.8 °F 29.6 °F 28.4 °F 81% 30.00 in 10.0 mi East 4.6 mph - N/A   Clear
1:33 PM 35.6 °F 30.7 °F 30.2 °F 81% 30.01 in 10.0 mi ESE 5.8 mph - N/A   Scattered Clouds
1:53 PM 35.6 °F 29.9 °F 28.4 °F 75% 30.01 in 10.0 mi SE 6.9 mph - N/A   Mostly Cloudy
2:14 PM 35.6 °F 29.9 °F 28.4 °F 75% 30.00 in 10.0 mi ESE 6.9 mph - N/A   Mostly Cloudy
2:33 PM 35.6 °F 30.7 °F 28.4 °F 75% 29.99 in 10.0 mi NE 5.8 mph - N/A   Scattered Clouds
2:53 PM 33.8 °F 28.6 °F 28.4 °F 81% 29.98 in 10.0 mi NE 5.8 mph - N/A   Clear
3:14 PM 33.8 °F 28.6 °F 28.4 °F 81% 29.98 in 10.0 mi NE 5.8 mph - N/A   Clear
3:33 PM 33.8 °F 28.6 °F 28.4 °F 81% 29.98 in 10.0 mi ENE 5.8 mph - N/A   Clear
3:53 PM 33.8 °F 27.7 °F 28.4 °F 81% 29.99 in 10.0 mi East 6.9 mph - N/A   Clear
4:14 PM 33.8 °F 27.7 °F 28.4 °F 81% 29.98 in 10.0 mi East 6.9 mph - N/A   Clear
4:33 PM 33.8 °F 27.7 °F 28.4 °F 81% 29.98 in 10.0 mi ESE 6.9 mph - N/A   Clear
4:54 PM 33.8 °F 27.0 °F 28.4 °F 81% 29.98 in 10.0 mi ESE 8.1 mph - N/A   Clear
5:13 PM 33.8 °F 26.4 °F 28.4 °F 81% 29.97 in 10.0 mi East 9.2 mph - N/A   Clear
5:33 PM 33.8 °F 26.4 °F 28.4 °F 81% 29.97 in 10.0 mi East 9.2 mph - N/A   Clear
5:54 PM 33.8 °F 27.0 °F 26.6 °F 75% 29.98 in 10.0 mi East 8.1 mph - N/A   Clear
6:14 PM 33.8 °F 27.7 °F 28.4 °F 81% 29.98 in 10.0 mi East 6.9 mph - N/A   Clear
6:34 PM 33.8 °F 27.7 °F 28.4 °F 81% 29.99 in 10.0 mi ESE 6.9 mph - N/A   Clear
6:54 PM 33.8 °F 26.4 °F 28.4 °F 81% 29.99 in 10.0 mi ESE 9.2 mph - N/A   Clear
7:13 PM 33.8 °F 27.0 °F 26.6 °F 75% 29.99 in 10.0 mi ESE 8.1 mph - N/A   Scattered Clouds
7:34 PM 33.8 °F 26.4 °F 26.6 °F 75% 29.99 in 10.0 mi ESE 9.2 mph - N/A   Scattered Clouds
7:54 PM 33.8 °F 26.4 °F 28.4 °F 81% 29.99 in 10.0 mi ESE 9.2 mph - N/A   Scattered Clouds
8:13 PM 33.8 °F 27.0 °F 28.4 °F 81% 29.98 in 10.0 mi ESE 8.1 mph - N/A   Mostly Cloudy
8:34 PM 33.8 °F 27.0 °F 28.4 °F 81% 29.98 in 10.0 mi ESE 8.1 mph - N/A   Overcast
8:53 PM 33.8 °F 25.8 °F 28.4 °F 81% 29.98 in 10.0 mi ESE 10.4 mph - N/A   Overcast
9:14 PM 33.8 °F 25.8 °F 26.6 °F 75% 29.98 in 10.0 mi ESE 10.4 mph - N/A   Overcast
9:34 PM 33.8 °F 25.8 °F 26.6 °F 75% 29.97 in 10.0 mi ESE 10.4 mph - N/A   Overcast
9:53 PM 33.8 °F 25.8 °F 26.6 °F 75% 29.97 in 10.0 mi ESE 10.4 mph - N/A   Overcast
10:13 PM 33.8 °F 25.3 °F 26.6 °F 75% 29.96 in 10.0 mi ESE 11.5 mph 17.3 mph N/A   Overcast
10:33 PM 33.8 °F 23.9 °F 26.6 °F 75% 29.96 in 10.0 mi ESE 15.0 mph 20.7 mph N/A   Overcast
10:53 PM 35.6 °F 25.9 °F 28.4 °F 75% 29.96 in 10.0 mi SE 16.1 mph 21.9 mph N/A   Overcast
11:14 PM 35.6 °F 26.6 °F 28.4 °F 75% 29.97 in 10.0 mi SE 13.8 mph 23.0 mph N/A   Overcast
11:33 PM 35.6 °F 26.2 °F 28.4 °F 75% 29.96 in 10.0 mi ESE 15.0 mph 19.6 mph N/A   Overcast
11:53 PM 35.6 °F 27.5 °F 28.4 °F 75% 29.97 in 10.0 mi SE 11.5 mph 19.6 mph N/A   Overcast